Wind_Speed
52 52 52 53 53 53 53 53 52 52 52 52 52 52 52 52 52 52 52 52 52 52 52 52 52 52 52 52 53 53 53 52 52 53 53 52 52 52
52 53 53 54 54 54 55 54 54 54 54 53 53 53 53 54 53 53 54 54 54 54 54 54 54 54 54 54 54 55 55 54 54 54 54 54 54 54
53 53 53 54 55 55 55 56 56 56 56 55 55 55 55 56 56 55 55 56 56 56 56 57 57 56 56 56 56 56 56 56 56 56 56 56 56 56
54 54 55 55 56 55 55 56 57 57 57 57 56 56 57 57 57 56 56 57 56 56 57 57 58 58 58 57 57 58 58 58 58 58 58 59 59 59
54 55 55 56 56 56 56 57 58 58 59 59 58 58 57 58 58 57 57 57 57 57 57 57 58 59 59 59 59 59 60 60 61 61 60 61 61 61
56 56 56 57 57 57 57 57 58 59 59 59 58 58 58 58 58 58 57 58 58 58 58 59 59 60 60 61 61 61 61 62 62 62 62 62 62 62
56 57 57 58 58 58 58 59 59 59 59 59 58 58 58 58 58 58 59 59 59 59 59 60 60 61 61 61 62 62 63 63 63 63 63 63 63 63
56 57 58 58 58 59 60 59 59 59 59 59 59 58 58 59 59 59 60 60 59 59 60 60 60 60 60 61 62 62 62 63 62 62 63 63 63 64
58 58 58 58 59 59 59 60 60 60 60 60 59 58 58 59 60 60 61 61 61 61 61 60 60 61 61 61 61 61 62 62 63 63 63 63 63 63
56 57 57 58 59 59 60 60 60 60 60 60 59 59 59 60 60 60 61 61 61 61 62 61 61 61 61 61 60 61 61 62 63 63 63 63 63 63
52 53 54 55 56 57 57 57 58 59 60 60 60 60 61 61 61 61 61 61 60 60 61 61 61 60 59 59 59 60 60 61 61 61 61 62 62 62
49 49 50 51 53 54 55 56 57 58 59 60 60 60 60 60 60 61 60 60 60 59 59 59 59 59 58 57 58 58 58 59 59 59 59 60 60 61
46 47 47 48 50 51 53 54 55 56 58 59 59 59 58 58 58 57 57 57 57 57 57 57 57 58 58 57 56 56 56 56 57 58 58 59 59 59
46 47 47 48 48 50 51 52 54 55 56 57 57 56 56 56 56 55 54 54 54 54 55 55 55 56 57 56 56 56 56 57 57 57 58 58 58 58
46 47 48 48 49 49 50 51 53 53 53 53 54 54 55 55 55 55 55 54 54 55 55 55 55 55 56 56 56 56 57 57 57 57 57 57 57 58
45 46 47 48 48 49 50 50 51 51 51 52 53 53 54 54 55 55 56 56 56 55 55 56 56 56 56 56 56 55 56 55 55 56 56 56 56 56
45 46 46 47 47 48 48 48 49 49 50 51 51 53 53 53 53 54 54 54 54 54 54 55 55 55 55 55 54 54 54 54 54 54 54 53 53 54
43 44 45 45 45 46 46 46 47 48 49 49 50 50 51 51 51 52 52 52 52 53 53 53 54 54 54 53 54 54 53 52 52 52 52 51 51 51
42 42 42 43 43 43 44 45 46 47 48 48 48 49 49 49 50 50 51 51 51 52 52 52 52 52 52 52 52 53 52 51 51 51 50 50 49 50
38 38 39 40 41 42 42 43 44 45 45 46 47 47 48 48 48 49 49 49 50 50 51 51 51 51 51 50 50 50 50 50 50 50 49 49 49 49
36 37 37 38 39 40 40 41 41 42 42 42 43 44 45 46 46 47 47 48 48 49 49 49 50 50 50 49 48 47 48 48 48 48 47 47 48 49
35 35 35 36 36 36 37 37 38 38 38 39 40 42 43 44 44 45 45 46 46 47 48 48 48 48 48 48 47 46 46 46 46 46 46 46 46 47
32 33 33 34 34 34 34 34 34 35 35 36 37 39 40 41 42 42 42 43 44 45 45 45 46 46 46 46 45 44 44 44 44 45 45 45 45 44
Wind_Direction
259 260 259 259 259 258 258 258 258 258 258 259 259 260 260 261 261 262 262 263 264 264 264 264 264 264 264 264 265 265 265 265 265 265 266 265 264 263
260 259 259 259 259 258 258 258 257 258 258 259 259 260 261 262 263 263 264 264 265 264 264 264 265 265 265 265 265 265 265 265 265 265 265 265 265 264
260 260 260 260 259 258 258 258 258 258 259 259 259 260 261 262 263 263 264 265 265 265 264 264 265 265 266 266 265 265 266 265 265 266 265 265 266 265
260 260 260 260 260 260 259 259 259 259 259 260 260 260 261 261 262 263 264 264 264 265 265 265 265 266 266 266 266 265 265 265 265 266 266 266 265 265
259 259 260 260 260 260 260 260 260 260 260 261 261 261 261 261 262 262 263 264 264 265 265 266 266 266 266 266 266 266 266 266 265 266 266 265 265 264
259 260 261 261 260 260 261 261 261 261 261 262 262 262 262 262 262 263 264 264 265 265 265 266 267 267 267 267 267 266 266 266 266 266 266 265 265 264
260 261 261 261 261 261 261 261 261 261 261 262 262 262 262 262 263 264 264 265 265 265 266 267 268 268 268 267 267 267 267 266 267 267 266 265 265 264
261 262 261 261 260 260 260 260 261 261 262 262 262 262 262 262 263 264 265 265 266 266 266 267 268 268 269 268 268 267 267 267 267 267 266 266 265 264
261 262 262 261 260 260 259 259 260 260 261 261 262 262 262 263 263 264 265 266 266 267 266 267 267 268 268 268 268 267 267 266 266 266 266 266 265 265
262 262 262 261 260 260 259 259 259 260 260 260 261 262 263 264 264 265 265 266 266 266 267 267 267 267 267 268 268 267 267 267 267 266 267 267 266 265
263 263 263 262 261 260 260 260 260 259 260 261 261 262 263 264 264 264 265 266 266 266 267 267 267 267 267 267 268 268 267 267 267 266 266 267 266 266
264 264 264 263 262 262 261 261 261 260 261 262 262 263 263 264 265 265 265 265 266 266 266 267 266 266 266 266 267 268 268 267 267 267 267 267 267 266
265 265 265 265 264 263 263 262 262 262 262 262 262 262 262 263 264 265 265 266 266 267 267 266 266 266 266 266 266 266 267 268 268 267 267 268 267 266
266 266 266 266 265 265 264 264 264 263 262 262 261 261 261 262 263 264 265 266 267 267 267 267 267 267 267 267 267 267 268 269 269 269 268 267 267 267
266 266 266 266 266 266 266 266 265 264 263 262 261 261 261 262 263 264 265 266 267 267 267 267 267 267 268 268 269 269 269 270 270 270 269 268 268 267
267 267 267 267 267 266 266 266 266 265 264 263 262 262 262 263 264 264 265 265 266 267 268 268 267 268 268 268 269 269 269 269 269 269 268 268 268 267
269 268 268 268 268 267 266 266 265 264 264 263 263 263 263 263 263 264 265 265 266 267 267 267 268 268 269 268 269 269 269 269 269 269 268 268 268 267
271 270 270 269 268 267 267 266 266 265 265 265 264 264 263 263 263 263 264 265 265 266 267 268 268 269 269 268 269 269 269 269 269 269 268 268 267 268
273 272 270 269 269 268 268 268 268 267 266 265 264 264 263 263 263 264 264 265 266 266 266 267 268 268 268 268 268 269 269 269 270 269 269 268 268 268
273 272 271 270 270 270 270 270 269 269 268 266 265 264 264 264 265 265 266 266 266 266 267 268 268 268 268 268 268 268 269 270 270 269 268 268 268 268
273 273 273 273 273 272 272 271 271 270 269 268 266 265 265 265 266 267 267 267 267 267 267 267 268 268 268 268 269 268 269 270 270 268 268 268 268 268
274 274 274 275 275 275 274 273 272 271 270 269 268 267 267 267 267 268 268 267 267 267 266 266 267 267 267 268 268 268 268 268 268 267 268 269 270 269
274 275 275 275 276 275 275 274 273 271 271 270 270 270 269 269 269 269 268 268 268 267 267 266 267 267 267 268 268 268 267 267 266 266 267 268 269 269
Height
5645 5647 5649 5650 5652 5654 5656 5658 5660 5662 5665 5667 5668 5669 5670 5671 5672 5673 5675 5676 5677 5678 5679 5680 5681 5682 5683 5684 5685 5685 5686 5687 5688 5689 5689 5690 5691 5692
5631 5633 5635 5637 5638 5640 5642 5643 5645 5648 5650 5653 5654 5655 5656 5657 5658 5659 5660 5662 5663 5663 5665 5666 5667 5668 5668 5669 5670 5671 5672 5672 5673 5674 5674 5675 5676 5677
5618 5619 5621 5622 5623 5625 5627 5629 5631 5633 5635 5638 5639 5640 5641 5643 5643 5644 5645 5647 5648 5648 5649 5650 5651 5652 5653 5654 5654 5655 5656 5657 5657 5658 5659 5660 5660 5661
5603 5605 5606 5607 5609 5610 5612 5613 5616 5617 5619 5622 5624 5625 5626 5627 5628 5629 5630 5631 5632 5633 5634 5634 5635 5636 5637 5638 5638 5639 5640 5640 5641 5642 5643 5644 5644 5644
5588 5590 5591 5592 5594 5595 5596 5598 5600 5602 5604 5606 5608 5610 5611 5611 5612 5614 5615 5616 5616 5617 5618 5618 5619 5619 5620 5621 5621 5622 5623 5624 5625 5625 5625 5625 5626 5627
5573 5574 5576 5577 5578 5580 5581 5582 5584 5586 5587 5589 5591 5593 5595 5596 5596 5598 5599 5600 5600 5601 5602 5602 5602 5602 5603 5604 5605 5605 5605 5605 5605 5606 5607 5607 5608 5609
5557 5559 5560 5561 5562 5563 5565 5566 5568 5569 5571 5573 5575 5577 5578 5580 5580 5581 5582 5583 5584 5584 5585 5586 5585 5585 5585 5585 5585 5586 5586 5587 5587 5588 5588 5589 5590 5591
5541 5543 5544 5545 5546 5547 5548 5550 5551 5553 5555 5556 5558 5560 5561 5562 5563 5564 5564 5566 5568 5569 5567 5568 5567 5567 5567 5567 5567 5567 5567 5568 5569 5569 5570 5570 5571 5572
5525 5526 5527 5528 5529 5530 5531 5533 5534 5536 5538 5540 5541 5543 5544 5545 5546 5547 5547 5548 5549 5550 5549 5551 5550 5549 5549 5549 5549 5549 5549 5549 5550 5550 5551 5552 5552 5553
5508 5509 5510 5511 5512 5513 5514 5516 5517 5519 5521 5523 5525 5526 5526 5527 5528 5529 5530 5530 5531 5531 5530 5532 5532 5532 5532 5532 5531 5531 5531 5531 5531 5532 5532 5533 5534 5534
5492 5492 5493 5494 5495 5496 5497 5499 5500 5502 5503 5504 5506 5508 5509 5509 5510 5511 5512 5513 5514 5514 5513 5514 5514 5514 5514 5514 5514 5513 5512 5512 5513 5513 5514 5514 5515 5515
5477 5477 5478 5478 5478 5479 5480 5482 5483 5485 5486 5487 5488 5490 5491 5492 5492 5493 5494 5495 5495 5497 5496 5496 5496 5495 5497 5498 5496 5496 5495 5495 5495 5495 5496 5496 5496 5496
5463 5463 5463 5463 5463 5463 5464 5465 5467 5467 5468 5469 5471 5472 5473 5474 5475 5476 5476 5477 5478 5479 5479 5478 5478 5478 5478 5480 5480 5479 5478 5478 5478 5478 5478 5478 5478 5478
5449 5449 5449 5448 5448 5448 5448 5449 5450 5450 5451 5452 5454 5455 5456 5457 5458 5459 5459 5460 5461 5461 5461 5460 5461 5461 5461 5462 5463 5463 5462 5461 5461 5461 5461 5461 5461 5461
5435 5435 5434 5434 5433 5434 5434 5434 5434 5434 5435 5436 5437 5438 5440 5441 5441 5442 5443 5443 5444 5444 5444 5444 5444 5444 5444 5445 5446 5446 5445 5445 5444 5444 5444 5444 5444 5445
5421 5421 5420 5419 5419 5419 5419 5418 5418 5419 5419 5420 5421 5422 5423 5424 5425 5425 5427 5427 5428 5428 5427 5427 5427 5427 5428 5428 5428 5428 5428 5428 5428 5427 5427 5427 5427 5428
5407 5406 5406 5405 5405 5404 5404 5404 5403 5404 5404 5404 5405 5406 5406 5407 5408 5409 5410 5411 5411 5412 5412 5411 5410 5410 5411 5411 5411 5411 5411 5411 5411 5410 5410 5411 5412 5411
5393 5393 5392 5391 5390 5390 5389 5389 5389 5389 5389 5389 5389 5390 5391 5392 5392 5393 5394 5394 5395 5395 5395 5395 5394 5394 5395 5395 5395 5394 5395 5395 5395 5395 5394 5395 5396 5396
5380 5379 5378 5377 5376 5376 5375 5375 5374 5374 5374 5374 5375 5375 5376 5376 5377 5377 5378 5378 5379 5379 5379 5378 5378 5378 5379 5380 5381 5379 5379 5379 5379 5379 5379 5379 5380 5380
5368 5366 5365 5364 5363 5362 5362 5361 5360 5360 5359 5359 5360 5360 5361 5361 5362 5362 5362 5362 5363 5363 5363 5363 5363 5363 5363 5364 5365 5365 5363 5363 5363 5364 5364 5364 5365 5365
5355 5354 5353 5351 5350 5349 5348 5347 5347 5346 5346 5345 5345 5346 5346 5347 5347 5347 5347 5347 5347 5348 5348 5348 5348 5348 5348 5348 5349 5350 5350 5348 5348 5348 5349 5349 5350 5350
5344 5342 5341 5340 5338 5337 5336 5335 5334 5333 5333 5332 5332 5332 5332 5333 5333 5333 5333 5333 5333 5333 5333 5333 5333 5333 5333 5333 5334 5335 5335 5335 5334 5333 5334 5334 5333 5334
5333 5332 5330 5328 5327 5326 5324 5323 5322 5322 5321 5320 5320 5320 5320 5319 5319 5319 5319 5319 5318 5318 5318 5319 5318 5318 5318 5319 5319 5320 5320 5320 5320 5320 5321 5320 5320 5320